sat.trackr.live / text

‹ back to catalog

KUIPER-00176

NORAD 65788 · 2025-217AC

PAYLOAD ACTIVE UNKNOWN

§ Identity

Operator
Country
US
Launch date
2025-09-25
Launch site
AFETR
Launch vehicle
Mass (kg)
RCS (m²)

External: N2YO · Heavens-Above · Gunter

§ Orbital elements

Epoch: 2026-05-25T04:40:12.436032Z

Period
97.30 min
Inclination
51.9004°
Eccentricity
0.0000949
Mean motion
14.79933811 rev/d
Perigee alt
628.9 km
Apogee alt
630.2 km
Semi-major
7,007.7 km
B*
-1.1294e-4
RAAN
64.7934°
Arg perigee
102.8857°
Mean anomaly
257.2211°
Rev number
3,620

§ Raw data

KUIPER-001761 65788U 25217AC  26145.19458838 -.00001082  00000+0 -11294-3 0  99972 65788  51.9004  64.7934 0000949 102.8857 257.2211 14.79933811 36208

JSON: /api/v1/satellites/65788 · /tle

For live sub-satellite position, see the globe view (requires WebGL).

§ Visibility from observer

Set your observer location to see the next 7 days of passes ≥ 10°. The values pass through the URL so the page stays shareable.

No JS? Fill the form by hand. The geolocation button needs JavaScript.